{"data":{"norad_id":61689,"intl_designator":"2024-195C","name":"STARLINK-11312 [DTC]","alt_names":[],"object_type":"PAYLOAD","status":"ACTIVE","operator":null,"country":"US","launch_date":"2024-10-30","launch_site_code":"AFWTR","launch_vehicle":null,"mission":null,"orbit_class":"UNKNOWN","rcs_meters":null,"size_class":null,"mass_kg":null,"dimensions":null,"purposes":["comms"],"wikipedia_slug":null,"has_3d_model":false,"image_url":null,"decayed_at":null,"tle_current":{"epoch":"2026-05-25T01:12:00.419904Z","epoch_age_seconds":67207,"freshness":"FRESH","line1":"1 61689U 24195C   26145.05000486  .00003458  00000+0  33383-4 0  9995","line2":"2 61689  53.1594  10.0697 0000872  74.2526 285.8588 15.69711614 91022","mean_motion":15.69711614,"eccentricity":8.72e-5,"inclination_deg":53.1594,"raan_deg":10.0697,"arg_perigee_deg":74.2526,"mean_anomaly_deg":285.8588,"bstar":3.3383e-5,"rev_number":9102,"period_min":91.736595891683,"perigee_km":359.13459045725,"apogee_km":360.30967308984,"semimajor_km":6737.8591317735,"source":"CELESTRAK","updated_at":"2026-05-25T13:38:19.439525Z"}}}